Weather History for Cape Girardeau, MO

Change the Weather History Date:

Friday, April 18, 2014

  Actual Average Record
Temperature  
Mean Temperature 60 °F 58 °F  
Max Temperature 75 °F 70 °F 86 °F (2006)
Min Temperature 44 °F 46 °F 27 °F (2001)
Degree Days  
Heating Degree Days 5 8  
Month to date heating degree days 173 190  
Since 1 July heating degree days 4816 4246  
Cooling Degree Days 0 1  
Month to date cooling degree days 7 12  
Year to date cooling degree days 7 16  
Growing Degree Days 10 (Base 50)    
Moisture  
Dew Point 44 °F    
Average Humidity 62    
Maximum Humidity 93    
Minimum Humidity 31    
Precipitation  
Precipitation 0.00 in 0.15 in 2.17 in (2013)
Month to date precipitation 3.71 2.46  
Year to date precipitation 9.16 13.74  
Sea Level Pressure  
Sea Level Pressure 30.23 in    
Wind  
Wind Speed 4 mph (NNE)    
Max Wind Speed 13 mph    
Max Gust Speed 16 mph    
Visibility 10 miles    
Events      
T = Trace of Precipitation, MM = Missing Value Source: NWS Daily Summary

Daily Weather History Graph

Daily Weather History Graph

Search for Another Location

Airport:

Trip Planner

Search our weather history database for the weather conditions in past years. The results will help you decide how hot, cold, wet, or windy it might be!

Date:

Astronomy

Apr. 18, 2014 Rise Set
Actual Time 6:19 AM CDT 7:36 PM CDT
Civil Twilight 5:52 AM CDT 8:03 PM CDT
Nautical Twilight 5:20 AM CDT 8:35 PM CDT
Astronomical Twilight 4:46 AM CDT 9:09 PM CDT
Moon 11:18 PM CDT (4/18) 8:44 AM CDT (4/18)
Length of Visible Light 14h 10m
Length of Day
13h 16m
Waning Gibbous, 87% of the Moon is Illuminated
Apr 18
Waning Gibbous
Apr 22
Last Quarter
Apr 29
New
May 6
First Quarter
May 14
Full

Hourly Weather History & Observations

Time (CDT) Temp. Windchill Dew Point Humidity Pressure Visibility Wind Dir Wind Speed Gust Speed Precip Events Conditions
12:53 AM 46.9 °F - 43.0 °F 86% 30.24 in 10.0 mi ESE 3.5 mph - N/A   Clear
1:53 AM 46.0 °F 43.9 °F 43.0 °F 89% 30.25 in 10.0 mi North 4.6 mph - N/A   Clear
2:53 AM 46.9 °F - 45.0 °F 93% 30.24 in 10.0 mi Calm Calm - N/A   Clear
3:53 AM 48.9 °F - 45.0 °F 86% 30.26 in 10.0 mi Calm Calm - N/A   Mostly Cloudy
4:53 AM 48.9 °F - 46.0 °F 90% 30.26 in 10.0 mi ESE 3.5 mph - N/A   Overcast
5:53 AM 46.0 °F 44.8 °F 44.1 °F 93% 30.25 in 8.0 mi WNW 3.5 mph - N/A   Mostly Cloudy
6:53 AM 48.9 °F - 44.1 °F 83% 30.26 in 10.0 mi Calm Calm - N/A   Mostly Cloudy
7:53 AM 51.1 °F - 46.0 °F 83% 30.28 in 10.0 mi East 3.5 mph - N/A   Mostly Cloudy
8:53 AM 57.0 °F - 46.9 °F 69% 30.28 in 10.0 mi NNE 4.6 mph - N/A   Clear
9:53 AM 64.0 °F - 46.0 °F 52% 30.28 in 10.0 mi North 6.9 mph - N/A   Clear
10:53 AM 66.9 °F - 45.0 °F 45% 30.29 in 10.0 mi North 4.6 mph - N/A   Clear
11:53 AM 69.1 °F - 45.0 °F 42% 30.28 in 10.0 mi East 4.6 mph - N/A   Clear
12:53 PM 71.1 °F - 42.1 °F 35% 30.26 in 10.0 mi Variable 4.6 mph - N/A   Clear
1:53 PM 72.0 °F - 42.1 °F 34% 30.24 in 10.0 mi Variable 4.6 mph - N/A   Clear
2:53 PM 73.0 °F - 41.0 °F 31% 30.22 in 10.0 mi NNE 4.6 mph - N/A   Clear
3:53 PM 73.9 °F - 41.0 °F 30% 30.19 in 10.0 mi North 6.9 mph - N/A   Clear
4:53 PM 73.9 °F - 43.0 °F 33% 30.18 in 10.0 mi NNE 11.5 mph - N/A   Mostly Cloudy
5:53 PM 69.1 °F - 45.0 °F 42% 30.18 in 10.0 mi NNE 8.1 mph - N/A   Mostly Cloudy
6:53 PM 66.2 °F - 42.8 °F 43% 30.18 in 10.0 mi NNE 8.1 mph - N/A   Scattered Clouds
7:53 PM 62.1 °F - 44.1 °F 52% 30.18 in 10.0 mi NNE 6.9 mph - N/A   Clear
8:53 PM 59.0 °F - 44.1 °F 58% 30.19 in 10.0 mi NNE 5.8 mph - N/A   Clear
9:53 PM 57.2 °F - 44.6 °F 63% 30.21 in 10.0 mi NNE 3.5 mph - N/A   Clear
10:53 PM 55.9 °F - 45.0 °F 67% 30.21 in 10.0 mi Calm Calm - N/A   Clear
11:53 PM 53.1 °F - 46.0 °F 77% 30.22 in 10.0 mi Calm Calm - N/A   Clear